Location: Powder Track
(41.8531°N, 72.3584°W)
Time: 08:25:27
(UTC+00:00)

Transit 4A - Pass Details

Date: 10 August 2021
Orbit: 871 x 974 km, 66.8° (Epoch: 20 September)

Event Time Altitude Azimuth Distance (km) Brightness Sun altitude
Rises 12:18:09 0° 322° (NW) 3,487 10.6 25.6°
Reaches altitude 10° 12:20:45 10° 316° (NW) 2,555 9.9 26.1°
Maximum altitude 12:26:12 39° 249° (WSW) 1,313 8.6 27.1°
Drops below altitude 10° 12:31:45 10° 182° (S) 2,601 10.4 28.2°
Sets 12:34:25 0° 175° (S) 3,556 11.1 28.7°
